User: anonymous   Login
Location: Unspecified
(43.4000°N, 0.0000°E)
Time: 17:22:15
(UTC+00:00)
Language:

AIST 2D - Orbit

View from above orbital plane
View from above orbital plane
View from above satellite
View from above satellite

Ground track
Ground track

The orbit data is extracted from the following two-line orbital elements,

1 41465U 16026B   19202.53291990  .00000661  00000-0  22486-4 0  9996
2 41465  97.1870  97.0082 0011729  13.2724 108.3706 15.33830432180533
Epoch (UTC): 21 July 2019 12:47:24
Eccentricity: 0.0011729
inclination: 97.1870°
perigee height: 456 km
apogee height: 472 km
right ascension of ascending node: 97.0082°
argument of perigee: 13.2724°
revolutions per day: 15.33830432
mean anomaly at epoch: 108.3706°
orbit number at epoch: 18053

The dashed part of the orbit path shows where the satellite is in the earth's shadow,  

DLR